This is the latest recevied weather packets stored in our database for station/object KF7SOJ. If no packets are shown the sender has not sent any weather packets the latest 10 day(s).
| Time | Temp. | Humidity | Pressure | Rain* | Wind** | Luminosity | Snow |
|---|---|---|---|---|---|---|---|
| 1788160616 | 60° F | 41% | 698.2 mmHg | 0 in | - | 0 W/m² | - |
| 1788160311 | 61° F | 40% | 698.3 mmHg | 0 in | - | 0 W/m² | - |
| 1788160010 | 61° F | 40% | 698.2 mmHg | 0 in | - | 0 W/m² | - |
| 1788159705 | 61° F | 40% | 698.2 mmHg | 0 in | - | 0 W/m² | - |
| 1788159404 | 61° F | 40% | 698.2 mmHg | 0 in | - | 0 W/m² | - |
| 1788159103 | 62° F | 38% | 698.2 mmHg | 0 in | - | 0 W/m² | - |
| 1788158798 | 62° F | 38% | 698.1 mmHg | 0 in | - | 0 W/m² | - |
| 1788158493 | 61° F | 38% | 698.2 mmHg | 0 in | - | 0 W/m² | - |
| 1788158189 | 61° F | 41% | 698.1 mmHg | 0 in | - | 0 W/m² | - |
| 1788157885 | 61° F | 39% | 698.1 mmHg | 0 in | - | 0 W/m² | - |
| 1788157584 | 61° F | 41% | 698.1 mmHg | 0 in | - | 0 W/m² | - |
| 1788157284 | 60° F | 42% | 698.1 mmHg | 0 in | - | 0 W/m² | - |
| 1788156982 | 60° F | 43% | 698 mmHg | 0 in | - | 0 W/m² | - |
| 1788156679 | 60° F | 44% | 697.9 mmHg | 0 in | - | 0 W/m² | - |
| 1788156375 | 61° F | 43% | 698 mmHg | 0 in | - | 0 W/m² | - |
| 1788156069 | 61° F | 43% | 698.1 mmHg | 0 in | - | 0 W/m² | - |
| 1788155768 | 60° F | 44% | 697.9 mmHg | 0 in | - | 0 W/m² | - |
| 1788155464 | 59° F | 47% | 697.9 mmHg | 0 in | - | 0 W/m² | - |
| 1788155163 | 59° F | 47% | 697.8 mmHg | 0 in | - | 0 W/m² | - |
| 1788154863 | 59° F | 47% | 697.8 mmHg | 0 in | - | 0 W/m² | - |
| 1788154562 | 60° F | 46% | 697.8 mmHg | 0 in | - | 0 W/m² | - |
| 1788154256 | 61° F | 45% | 697.9 mmHg | 0 in | - | 0 W/m² | - |
| 1788153956 | 62° F | 44% | 697.9 mmHg | 0 in | - | 0 W/m² | - |
| 1788153655 | 63° F | 41% | 697.9 mmHg | 0 in | - | 0 W/m² | - |
| 1788153353 | 64° F | 38% | 697.7 mmHg | 0 in | - | 0 W/m² | - |
* Rain latest hour (hover to see other rain measurements)
** Current wind speed in m/s (hover to see current wind gust speed)